Snowfall_Accumulation
0.0 0.0 0.0 0.0 0.0 0.0 0.0 0.0 0.1 0.2 0.1 0.1 0.1 0.0 0.0 0.0 0.0 0.0 0.0 0.0 0.0 0.0 0.0 0.0 0.0 0.0 0.0 0.0 0.0 0.0 0.0 0.0 0.0 0.0 0.0 0.0 0.0 0.0
0.0 0.0 0.0 0.0 0.0 0.0 0.0 0.0 0.0 0.1 0.1 0.0 0.0 0.0 0.0 0.0 0.0 0.0 0.0 0.0 0.0 0.0 0.0 0.0 0.0 0.0 0.0 0.0 0.0 0.0 0.0 0.0 0.0 0.0 0.0 0.0 0.0 0.0
0.0 0.0 0.0 0.0 0.0 0.0 0.0 0.0 0.0 0.1 0.1 0.0 0.0 0.0 0.0 0.0 0.0 0.0 0.0 0.1 0.1 0.1 0.0 0.0 0.0 0.1 0.1 0.1 0.1 0.0 0.0 0.0 0.0 0.0 0.0 0.0 0.0 0.0
0.0 0.0 0.0 0.0 0.0 0.0 0.0 0.0 0.0 0.0 0.1 0.1 0.1 0.0 0.1 0.1 0.0 0.1 0.0 0.0 0.0 0.0 0.0 0.1 0.1 0.2 0.2 0.2 0.1 0.1 0.1 0.1 0.0 0.0 0.0 0.0 0.0 0.0
0.0 0.1 0.0 0.1 0.1 0.0 0.0 0.1 0.1 0.1 0.1 0.4 0.1 0.1 0.1 0.2 0.3 0.2 0.1 0.0 0.0 0.0 0.0 0.0 0.1 0.3 0.4 0.4 0.4 0.4 0.3 0.2 0.1 0.1 0.1 0.1 0.0 0.0
0.0 0.1 0.1 0.1 0.1 0.1 0.1 0.2 0.3 0.6 0.7 0.9 1.0 0.9 0.8 0.7 0.5 0.5 0.5 0.3 0.2 0.0 0.2 0.0 0.1 0.1 0.2 0.2 0.2 0.2 0.2 0.2 0.3 0.3 0.3 0.2 0.2 0.1
0.1 0.1 0.2 0.2 0.1 0.1 0.4 0.8 0.9 1.2 1.6 2.0 1.8 1.4 1.3 1.0 1.0 0.8 0.9 0.7 0.3 0.1 0.2 0.2 0.2 0.0 0.0 0.0 0.0 0.0 0.1 0.3 0.4 0.6 0.6 0.6 0.4 0.3
0.1 0.5 0.7 0.9 0.5 0.4 0.3 0.4 1.0 2.1 2.5 2.5 2.1 1.6 1.1 0.9 0.7 0.9 1.2 1.5 1.2 0.4 0.4 0.3 0.2 0.4 0.2 0.0 0.1 0.1 0.3 0.4 0.6 0.6 0.7 0.7 0.5 0.5
1.1 1.1 1.3 1.3 1.2 0.9 0.8 0.8 1.1 1.1 1.2 1.4 1.3 0.9 0.8 0.8 1.2 1.7 1.4 1.9 1.4 0.5 0.7 0.6 0.2 0.3 0.3 0.1 0.0 0.1 0.2 0.3 0.5 0.6 0.7 0.7 0.7 0.5
1.3 1.2 1.0 0.8 0.7 0.7 1.0 1.4 0.8 0.3 0.3 0.3 0.4 0.4 0.5 0.6 1.2 2.1 2.0 1.7 0.8 0.3 0.2 1.0 0.3 0.3 0.2 0.1 0.0 0.1 0.2 0.3 0.4 0.6 0.7 0.8 0.9 0.9
0.9 0.8 0.5 0.4 0.4 1.0 1.3 1.0 0.4 0.2 0.1 0.2 0.4 0.4 0.4 0.5 0.5 1.5 2.4 3.0 2.1 0.4 0.3 0.9 0.7 0.5 0.2 0.1 0.1 0.1 0.1 0.2 0.3 0.4 0.5 0.6 0.7 0.8
0.5 0.2 0.3 0.3 0.7 1.1 1.2 1.3 1.0 0.4 0.4 0.2 0.2 0.2 0.2 0.2 0.2 1.0 2.5 4.8 4.3 2.6 0.5 1.0 1.3 1.9 2.5 0.4 0.3 0.1 0.1 0.0 0.1 0.2 0.3 0.5 0.6 1.0
0.5 0.3 0.2 0.5 0.9 1.1 1.2 1.1 1.1 1.2 1.0 0.8 0.5 0.4 0.2 0.3 0.4 0.4 1.0 4.2 6.5 4.6 1.1 3.1 4.8 3.3 4.9 2.5 0.5 0.2 0.2 0.2 0.2 0.1 0.2 0.5 0.8 1.6
0.7 0.4 0.4 0.8 1.1 1.0 0.9 0.8 1.1 1.2 0.9 1.1 1.1 0.8 0.6 0.6 0.5 0.5 0.5 0.9 2.0 3.0 1.5 4.0 8.5 6.2 7.4 5.6 2.2 0.5 0.5 0.2 0.4 0.6 0.8 1.0 1.6 2.0
0.7 0.7 0.8 0.9 0.9 0.7 0.6 0.7 0.9 1.1 1.4 1.7 1.3 1.0 0.6 0.5 0.7 1.1 1.2 0.8 1.0 0.9 0.9 1.5 4.7 5.9 8.1 8.2 4.6 1.6 1.1 0.5 0.3 0.9 1.4 1.9 2.4 2.8
0.6 1.0 0.9 0.7 0.6 0.5 0.5 0.5 0.6 0.9 1.7 2.2 1.7 1.5 1.2 1.2 1.8 1.9 2.6 2.7 2.9 2.1 1.1 0.9 1.9 5.1 7.9 5.7 5.7 4.0 2.2 2.4 1.3 1.7 2.3 2.1 2.1 2.3
2.2 2.0 2.0 1.7 1.8 1.3 1.2 0.9 0.9 1.4 1.7 2.2 2.3 2.5 2.5 2.5 2.4 2.4 3.4 4.3 4.8 3.5 2.5 1.6 1.5 2.2 3.7 4.9 5.7 3.2 2.2 2.6 2.7 3.3 3.9 3.6 2.1 2.1
2.6 2.9 2.7 2.1 2.2 2.0 2.2 2.1 2.1 2.4 2.3 2.9 3.1 3.7 3.7 3.8 3.5 3.1 3.7 4.7 5.1 3.9 3.4 3.0 3.6 4.4 3.9 3.1 2.4 3.2 3.2 3.5 3.2 3.2 4.2 6.3 4.2 2.1
2.3 2.4 2.2 2.2 2.4 2.1 2.4 3.0 3.2 3.2 3.4 4.0 4.3 4.7 5.3 5.3 5.3 5.1 4.9 4.9 5.0 4.0 3.6 4.0 5.4 9.6 10.4 5.3 2.5 2.1 4.7 5.1 4.5 4.5 4.9 7.2 7.8 4.8
1.8 2.1 2.3 2.4 2.8 3.0 3.1 3.3 3.6 3.7 4.0 4.3 4.5 5.0 5.8 6.5 6.5 6.0 5.7 6.1 5.9 5.3 4.4 3.7 4.8 8.5 12.9 10.4 6.9 3.2 2.3 5.3 8.1 8.6 6.3 5.1 5.2 2.3
2.0 2.2 2.5 3.1 3.1 3.4 4.0 4.2 5.0 4.7 4.8 5.4 5.7 5.8 6.6 7.8 7.7 6.6 6.6 6.4 6.8 6.8 6.2 4.0 3.0 4.4 8.6 12.3 10.2 4.6 3.1 3.1 5.1 10.3 11.0 10.0 7.6 4.9
2.7 2.6 2.9 3.0 3.6 4.0 4.7 5.0 5.3 5.4 5.8 6.0 6.2 6.3 6.7 7.8 8.1 7.4 7.3 7.6 7.0 6.2 5.9 4.9 4.7 5.9 8.8 11.9 9.1 4.8 3.7 3.0 2.8 3.0 6.2 11.6 17.7 16.5
3.3 3.4 3.2 3.4 3.7 4.9 5.2 5.5 5.7 5.3 5.6 6.1 6.5 6.7 7.0 7.8 7.1 7.6 7.7 8.1 8.5 7.8 7.5 6.9 6.4 6.4 6.6 7.5 8.0 6.1 4.6 3.9 3.9 3.8 4.2 4.5 5.7 6.7